Location: *
(45.1000°S, 169.5000°W)
Time: 05:23:26
(UTC+00:00)

Daily predictions for brighter satellites

Satellite Brightness Start Highest point End
(mag) Time Altitude Azimuth Time Altitude Azimuth Time Altitude Azimuth
STARLINK-1291 3.7 04:11:44 10° WNW 04:15:03 50° SSW 04:18:23 10° SE
CZ-4B R/B 3.1 04:10:56 10° SSE 04:15:19 70° ENE 04:19:47 10° N
STARLINK-1317 3.8 04:12:01 10° WNW 04:15:31 49° SSW 04:19:04 10° SE
Meteor PRIRODA 3.9 04:12:57 10° SSE 04:16:38 53° E 04:20:17 10° N
STARLINK-1305 4.0 04:12:36 10° NW 04:16:41 55° NE 04:20:49 10° ESE
STARLINK-1264 3.7 04:13:37 10° WNW 04:16:57 48° SSW 04:20:18 10° SE
SKYMED 2 3.6 04:12:42 10° NNE 04:17:02 63° ESE 04:21:26 10° S
STARLINK-33 4.1 04:15:32 10° W 04:18:34 34° SSW 04:21:38 10° SE
STARLINK-1267 3.8 04:15:32 10° WNW 04:18:52 47° SSW 04:22:14 10° SE
STARLINK-1278 3.9 04:15:42 10° NW 04:19:59 69° NE 04:24:18 10° ESE
STARLINK-1272 3.8 04:17:26 10° W 04:20:46 46° SSW 04:24:06 10° SE
STARLINK-64 3.3 04:17:44 10° NW 04:21:20 84° NE 04:24:57 10° ESE
STARLINK-1262 3.9 04:17:31 10° NW 04:21:39 60° NE 04:25:49 10° ESE
STARLINK-1280 3.8 04:17:32 10° NW 04:21:50 71° NE 04:26:10 10° ESE
STARLINK-1207 3.8 04:19:21 10° W 04:22:40 45° SSW 04:26:01 10° SE
Cosmos 1340 2.7 04:18:57 10° N 04:22:43 66° E 04:26:33 10° SSE
Cosmos 1844 3.8 04:18:10 10° SSW 04:23:50 89° NW 04:29:25 10° NNE
Cosmos 2219 Rocket 2.5 04:18:37 10° N 04:24:04 50° ENE 04:29:37 10° SE
STARLINK-1266 3.9 04:21:20 10° W 04:24:38 44° SSW 04:27:58 10° SE
Iridium 4 Rocket 3.8 04:19:20 10° N 04:24:49 78° W 04:29:53 10° S
ALOS 2.3 04:21:08 10° SSE 04:25:55 86° ENE 04:30:38 10° NNW
H-2A R/B 2.5 04:22:07 10° SSE 04:26:19 65° ENE 04:30:18 10° N
STARLINK-1300 3.8 04:22:26 10° NW 04:26:35 65° NE 04:30:47 10° ESE
STARLINK-1284 3.9 04:23:19 10° W 04:26:37 43° SSW 04:29:56 10° SE
Starlink 7 placeholder 3.0 04:24:05 10° WSW 04:27:10 74° NW 04:30:05 10° NE
STARLINK-66 4.3 04:24:20 10° W 04:27:19 31° SSW 04:30:18 10° SE
Cosmos 1680 Rocket 4.2 04:22:31 10° NNE 04:27:20 36° ENE 04:32:10 10° SE
Shenzhou-11 Module 3.2 04:26:12 10° NW 04:28:28 27° NNE 04:30:44 10° ENE
STARLINK-1258 4.0 04:25:14 10° W 04:28:32 42° SSW 04:31:51 10° SE
Cosmos 923 Rocket 4.3 04:24:53 10° N 04:30:03 51° ENE 04:35:17 10° SSE
STARLINK-1292 4.0 04:27:13 10° W 04:30:31 41° SSW 04:33:49 10° SE
Meteor 2-6 Rocket 4.2 04:26:00 10° S 04:31:27 57° ESE 04:36:55 10° NNE
STARLINK-1295 3.7 04:27:25 10° NW 04:31:36 71° NE 04:35:39 11° ESE
STARLINK-1274 4.0 04:29:15 10° W 04:32:32 40° SSW 04:35:45 10° SE
STARLINK-52 3.5 04:29:31 10° SW 04:32:40 41° SSE 04:35:48 10° E
CZ-4C R/B 4.4 04:28:29 10° WSW 04:33:25 19° SSW 04:37:51 10° SSE
STARLINK-1289 4.1 04:31:18 10° W 04:34:34 39° SSW 04:37:43 11° SE
Cosmos 1500 Rocket 3.7 04:31:27 10° N 04:35:51 81° W 04:40:17 10° S
FALCON 9 DEB 3.9 04:33:12 10° SW 04:36:32 36° SSE 04:39:35 11° E
STARLINK-1303 4.1 04:33:17 10° W 04:36:32 38° SSW 04:39:37 11° SE
STARLINK-1287 3.7 04:32:21 10° NW 04:36:33 76° NE 04:40:24 12° ESE
Cosmos 1782 3.0 04:32:33 10° SSW 04:36:37 77° W 04:40:38 10° N
Cosmos 1862 3.7 04:34:29 10° NNE 04:38:20 43° E 04:42:14 10° SSE
STARLINK-75 4.3 04:35:30 10° W 04:38:26 29° SSW 04:41:08 11° SE
STARLINK-1312 4.1 04:35:18 10° W 04:38:33 37° SSW 04:41:32 12° SE
STARLINK-1371 4.5 04:35:48 10° SW 04:39:01 27° SSE 04:41:37 13° ESE
Cosmos 2322 Rocket 3.9 04:35:59 10° WNW 04:40:53 29° SW 04:45:51 10° S
STARLINK-1341 4.5 04:38:27 10° SW 04:41:42 28° SSE 04:44:13 14° ESE
SL-4 R/B 2.0 04:38:10 10° WSW 04:41:52 73° NNW 04:45:48 10° NE
STARLINK-1374 4.4 04:41:04 10° SW 04:44:19 28° SSE 04:46:42 15° ESE
STARLINK-58 3.9 04:42:01 10° W 04:45:06 39° SSW 04:47:38 14° SE
Cosmos 1238 Rocket 4.1 04:42:25 10° NE 04:45:52 22° E 04:48:23 13° SE
Cosmos 1805 Rocket 3.6 04:41:50 10° N 04:46:10 62° E 04:50:36 10° SSE
Envisat 4.2 04:42:11 10° SE 04:46:12 23° E 04:50:10 10° NE
STARLINK-1302 3.6 04:42:17 10° NW 04:46:30 88° NE 04:49:59 15° ESE
STARLINK-1339 4.4 04:43:44 10° SW 04:47:02 29° SSE 04:49:19 16° ESE
STARLINK-22 4.3 04:45:04 10° W 04:48:02 30° SSW 04:50:24 14° SE
STARLINK-1377 4.4 04:46:06 10° SW 04:49:22 29° SSE 04:51:30 17° ESE
Cosmos 2123 Rocket 4.1 04:44:40 10° S 04:50:58 85° W 04:57:14 10° N
STARLINK-1273 3.6 04:47:16 10° WNW 04:51:29 86° SSW 04:54:46 16° ESE
STARLINK-1353 4.3 04:48:46 10° SW 04:52:04 30° SSE 04:54:05 18° ESE
Meteor 1-27 Rocket 4.1 04:47:24 10° S 04:53:07 47° ESE 04:58:51 10° NNE
USA 234 3.7 04:47:01 10° SE 04:53:29 58° SSW 04:59:55 10° WNW
STARLINK-1320 4.1 04:50:44 10° SW 04:53:33 28° SSE 04:54:59 20° ESE
STARLINK-1322 4.1 04:51:02 10° SW 04:53:53 28° SSE 04:55:18 20° ESE
Cosmos 1812 2.9 04:50:16 10° S 04:54:06 47° ESE 04:57:51 10° NNE
STARLINK-1324 4.1 04:51:23 10° SW 04:54:14 28° SSE 04:55:38 20° ESE
STARLINK-1294 4.1 04:51:46 10° SW 04:54:34 28° SSE 04:55:55 20° ESE
COSMOS 2428 2.7 04:49:02 10° NNW 04:54:47 78° ENE 05:00:36 10° SSE
STARLINK-1261 4.1 04:52:03 10° SW 04:54:54 28° SSE 04:56:16 20° ESE
STARLINK-1375 4.3 04:51:46 10° SW 04:55:07 31° SSE 04:57:03 19° ESE
STARLINK-1325 4.0 04:52:22 10° SW 04:55:14 28° SSE 04:56:35 20° ESE
STARLINK-1333 4.0 04:52:46 10° SW 04:55:37 28° SSE 04:56:57 21° ESE
STARLINK-1334 4.0 04:53:05 10° SW 04:55:56 28° SSE 04:57:16 21° ESE
STARLINK-1326 4.0 04:53:25 10° SW 04:56:17 28° SSE 04:57:35 21° ESE
Cosmos 1461 3.2 04:52:37 10° SSW 04:56:24 38° SE 05:00:02 10° ENE
STARLINK-1288 3.7 04:52:14 10° WNW 04:56:26 81° SW 04:59:32 18° SE
STARLINK-1323 4.0 04:53:44 10° SW 04:56:36 29° SSE 04:57:54 21° ESE
STARLINK-81 4.5 04:53:16 10° NNW 04:56:45 31° NE 04:58:52 19° E
STARLINK-1349 4.0 04:54:07 10° SW 04:56:58 29° SSE 04:58:15 21° ESE
Helios 1A Rocket 4.4 04:56:55 17° E 04:57:16 17° E 05:00:00 10° NE
STARLINK-1336 4.0 04:54:26 10° SW 04:57:17 29° SSE 04:58:33 22° ESE
ADEOS Rocket 4.1 04:49:50 10° N 04:57:21 65° W 05:05:12 10° SSW
STARLINK-1350 4.3 04:54:10 10° SW 04:57:30 31° SSE 04:59:17 20° ESE
STARLINK-1331 4.0 04:54:48 10° SW 04:57:40 29° SSE 04:58:55 22° ESE
STARLINK-1344 4.0 04:55:09 10° SW 04:58:01 29° SSE 04:59:15 22° ESE
STARLINK-1343 4.0 04:55:26 10° SW 04:58:18 29° SSE 04:59:32 22° ESE
STARLINK-54 4.3 04:54:50 10° NNW 04:58:25 35° NE 05:00:34 20° E
STARLINK-1346 4.0 04:55:51 10° SW 04:58:41 29° SSE 04:59:51 22° ESE
STARLINK-1328 4.0 04:56:06 10° SW 04:58:59 29° SSE 05:00:11 22° ESE
STARLINK-1354 4.0 04:56:26 10° SW 04:59:19 29° SSE 05:00:30 23° ESE
STARLINK-1347 4.0 04:56:47 10° SW 04:59:41 29° SSE 05:00:51 23° ESE
STARLINK-77 4.4 04:56:20 10° NNW 04:59:52 33° NE 05:01:54 20° E
STARLINK-1357 4.0 04:57:08 10° SW 05:00:01 29° SSE 05:01:09 23° ESE
STARLINK-1352 4.2 04:56:53 10° SW 05:00:15 32° SSE 05:01:54 22° ESE
STARLINK-1335 4.0 04:57:31 10° SW 05:00:24 30° SSE 05:01:32 23° ESE
ATLAS 5 CENTAUR R/B 3.4 04:54:08 10° N 05:00:29 35° ENE 05:04:51 17° ESE
STARLINK-1327 4.0 04:57:47 10° SW 05:00:41 30° SSE 05:01:48 23° ESE
STARLINK-1340 4.0 04:58:08 10° SW 05:01:01 30° SSE 05:02:08 23° ESE
STARLINK-1356 4.0 04:58:29 10° SW 05:01:22 30° SSE 05:02:28 24° ESE
STARLINK-1308 3.7 04:57:15 10° WNW 05:01:28 75° SSW 05:04:21 20° SE
STARLINK-1345 4.0 04:58:48 10° SW 05:01:42 30° SSE 05:02:47 24° SE
STARLINK-1355 3.9 04:59:08 10° SW 05:02:02 30° SSE 05:03:06 24° SE
STARLINK-1321 3.9 04:59:31 10° SW 05:02:24 30° SSE 05:03:27 24° SE
STARLINK-1358 3.9 04:59:49 10° SW 05:02:43 30° SSE 05:03:45 24° SE
STARLINK-1368 4.2 04:59:38 10° SW 05:03:01 32° SSE 05:04:33 23° ESE
STARLINK-1332 3.9 05:00:13 10° SW 05:03:08 30° SSE 05:04:08 25° SE
STARLINK-1348 3.9 05:00:31 10° SW 05:03:25 30° SSE 05:04:26 25° SE
STARLINK-1330 3.9 05:00:49 10° SW 05:03:44 31° SSE 05:04:43 25° SE
STARLINK-1311 4.5 05:01:14 10° WSW 05:03:48 24° SSW 05:05:12 17° SSE
STARLINK-60 3.8 05:00:36 10° WSW 05:03:49 52° NW 05:06:59 10° NE
Lacrosse 5 rocket 3.3 05:01:41 10° NNE 05:04:01 14° ENE 05:04:38 14° ENE
Cosmos 1624 Rocket 4.2 04:58:55 10° SSW 05:04:04 49° ESE 05:09:09 10° NE
STARLINK-1363 3.9 05:01:14 10° SW 05:04:09 31° SSE 05:05:07 25° SE
STARLINK-1337 3.9 05:01:31 10° SW 05:04:26 31° SSE 05:05:23 25° SE
STARLINK-1342 3.9 05:01:50 10° SW 05:04:46 31° SSE 05:05:42 26° SE
STARLINK-79 4.3 05:01:09 10° NNW 05:04:46 36° NE 05:06:37 23° E
STARLINK-1364 3.9 05:02:10 10° SW 05:05:05 31° SSE 05:06:01 26° SE
COSMO-SKYMED 1 4.1 05:01:01 10° NNW 05:05:09 41° W 05:09:21 10° SSW
STARLINK-1376 3.9 05:02:32 10° SW 05:05:28 31° SSE 05:06:22 26° SE
STARLINK-1360 3.9 05:02:51 10° SW 05:05:47 31° SSE 05:06:40 26° SE
STARLINK-1369 4.2 05:02:24 10° SW 05:05:48 33° SSE 05:07:13 24° ESE
STARLINK-1361 3.9 05:03:10 10° SW 05:06:06 31° SSE 05:06:59 26° SE
STARLINK-78 4.2 05:02:45 10° NNW 05:06:23 38° NE 05:08:11 24° E
STARLINK-1367 3.9 05:03:33 10° SW 05:06:26 31° SSE 05:07:16 27° SE
STARLINK-1366 3.9 05:03:55 10° SW 05:06:51 32° SSE 05:07:42 27° SE
Cosmos 2237 Rocket 2.7 05:01:57 10° N 05:07:11 39° ENE 05:11:03 17° SE
CZ-4B R/B 3.3 05:01:48 10° SSE 05:07:12 55° E 05:12:37 10° N
Cosmos 1943 Rocket 4.0 05:05:45 10° SSE 05:07:26 12° SE 05:07:26 12° SE
STARLINK-57 4.1 05:04:27 10° NNW 05:08:07 41° NE 05:09:54 25° E
STARLINK-61 3.5 05:04:10 10° WNW 05:08:09 88° SSW 05:10:27 24° ESE
STARLINK-1372 4.1 05:05:11 10° SW 05:08:36 34° SSE 05:09:53 26° ESE
Cosmos 1707 Rocket 3.5 05:04:56 10° S 05:09:26 69° E 05:13:49 10° NNE
STARLINK-49 4.1 05:06:00 10° NNW 05:09:40 40° NE 05:11:22 26° E
STARLINK-27 4.1 05:07:35 10° NNW 05:11:15 41° NE 05:12:53 27° E
STARLINK-1304 3.8 05:07:14 10° WNW 05:11:25 66° SSW 05:13:54 24° SE
STARLINK-1378 4.1 05:08:13 10° SW 05:11:41 35° SSE 05:12:53 28° ESE
STARLINK-74 4.0 05:09:12 10° NNW 05:12:54 42° NE 05:14:28 28° E
STARLINK-1286 3.9 05:09:31 10° WNW 05:13:43 62° SSW 05:16:08 24° SE
STARLINK-1023 4.4 05:09:56 10° NNW 05:13:48 38° NE 05:15:28 26° E
STARLINK-1329 4.0 05:10:30 10° SW 05:13:58 36° SSE 05:15:02 29° ESE
STARLINK-1379 4.0 05:10:46 10° SW 05:14:13 36° SSE 05:15:16 29° ESE
STARLINK-39 4.0 05:10:49 10° NNW 05:14:31 44° NE 05:16:02 29° E
STARLINK-31 3.9 05:12:25 10° NNW 05:16:09 46° NE 05:17:37 30° E
STARLINK-1362 4.0 05:13:40 10° SW 05:17:12 38° SSE 05:18:12 31° ESE
STARLINK-1365 4.0 05:13:53 10° SW 05:17:26 38° SSE 05:18:25 32° ESE
STARLINK-69 3.8 05:14:09 10° NW 05:17:56 51° NE 05:19:23 32° E
STARLINK-1007 4.2 05:14:50 10° NNW 05:18:46 41° NE 05:20:16 29° E
ATLAS CENTAUR R/B 3.8 05:17:07 10° S 05:18:35 12° SSE 05:18:35 12° SSE
Cosmos 1371 Rocket 4.0 05:13:42 10° SSW 05:19:10 74° ESE 05:24:33 10° NNE
STARLINK-21 3.8 05:15:41 10° NW 05:19:26 49° NE 05:20:47 33° E
STARLINK-1373 4.0 05:16:27 10° SW 05:20:00 39° SSE 05:20:51 33° SE
STARLINK-45 3.7 05:17:26 10° NW 05:21:14 55° NE 05:22:35 35° E
STARLINK-1390 3.9 05:19:08 10° SW 05:22:40 39° SSE 05:23:22 35° SE
STARLINK-70 3.7 05:19:01 10° NW 05:22:50 55° NE 05:24:06 36° E
STARLINK-62 4.5 05:20:14 10° WSW 05:23:04 26° SSW 05:23:57 23° SSE
SL-16 R/B 3.5 05:19:03 10° NE 05:22:27 20° ENE 05:22:27 20° ENE
Cosmos 1862 Rocket 3.8 05:18:58 10° S 05:23:24 46° ESE 05:27:45 10° NNE
STARLINK-1048 4.1 05:19:44 10° NNW 05:23:43 45° NE 05:25:02 33° E
STARLINK-76 3.7 05:20:34 10° NW 05:24:21 54° NE 05:25:32 37° E
STARLINK-1029 4.3 05:21:32 10° W 05:24:24 29° SSW 05:25:14 25° S
STARLINK-71 3.7 05:20:33 10° NW 05:24:33 59° NE 05:25:57 36° E
Cosmos 158 Rocket 4.0 05:19:40 10° NNW 05:24:52 85° WSW 05:30:07 11° SSE
STARLINK-34 4.5 05:22:13 10° WSW 05:25:01 26° SSW 05:25:50 23° S
STARLINK-23 3.6 05:22:11 10° NW 05:25:59 56° NE 05:27:06 39° E
Cosmos 2333 Rocket 2.9 05:21:52 10° NW 05:27:31 53° WSW 05:33:13 10° SSE
Cosmos 405 4.2 05:24:08 10° SSW 05:27:35 44° W 05:30:57 10° NNW
STARLINK-32 3.6 05:23:48 10° NW 05:27:37 57° NE 05:28:40 41° E
STARLINK-1299 4.3 05:23:32 10° W 05:27:44 49° SSW 05:29:38 29° SE
STARLINK-1306 4.2 05:24:00 10° WNW 05:28:11 52° SSW 05:30:01 30° SE
Cosmos 2112 Rocket 4.1 05:23:02 10° NNW 05:28:23 80° WSW 05:33:30 11° SSE
STARLINK-1049 4.0 05:24:37 10° NW 05:28:40 49° NE 05:29:49 38° E
Okean O Rocket 1.6 05:24:15 10° SSE 05:28:45 87° ENE 05:33:14 10° NNW
H-2A R/B 2.7 05:25:18 10° S 05:29:13 85° WSW 05:33:08 10° NNW
STARLINK-40 3.6 05:25:28 10° NW 05:29:18 59° NE 05:30:18 43° E
STARLINK-44 3.5 05:27:02 10° NW 05:30:53 61° NE 05:31:48 45° E
Cosmos 1605 Rocket 4.4 05:25:11 10° NNW 05:31:22 65° W 05:37:33 10° S
STARLINK-1281 4.2 05:27:16 10° WNW 05:31:24 52° SSW 05:33:02 32° SE
Cosmos 2278 Rocket 2.1 05:25:52 10° SSW 05:31:37 86° ESE 05:37:19 10° NNE
STARLINK-29 3.4 05:29:23 10° WSW 05:32:41 61° NW 05:33:59 32° NNE
STARLINK-37 3.4 05:28:51 10° NW 05:32:43 67° NE 05:33:38 48° E
STARLINK-1051 3.9 05:29:34 10° NW 05:33:39 53° NE 05:34:37 42° E
Sich 1 3.7 05:29:21 10° NNW 05:33:40 56° WSW 05:38:07 10° S
STARLINK-36 3.5 05:30:17 10° NW 05:34:08 65° NE 05:34:57 49° E
STARLINK-68 3.4 05:32:08 10° NW 05:35:59 73° NE 05:36:47 52° E
STARLINK-1310 4.2 05:32:18 10° W 05:36:24 49° SSW 05:37:49 34° SSE
SMAP 3.0 05:32:36 15° SSE 05:36:29 67° ENE 05:41:09 10° N
STARLINK-63 3.4 05:33:43 10° NW 05:37:35 72° NE 05:38:18 55° E
STARLINK-35 3.4 05:35:13 10° NW 05:39:05 71° NE 05:39:42 57° E
STARLINK-51 3.4 05:36:55 10° NW 05:40:47 73° NE 05:41:22 60° E
STARLINK-1319 4.3 05:37:19 10° W 05:41:24 46° SSW 05:42:36 36° SSE
STARLINK-30 3.3 05:38:32 10° NW 05:42:25 75° NE 05:42:55 63° E
STARLINK-1028 3.7 05:39:27 10° NW 05:43:35 63° NE 05:44:12 55° E
STARLINK-72 3.3 05:40:14 10° NW 05:44:07 78° NE 05:44:35 66° E
Cosmos 2360 Rocket 4.4 05:41:10 10° W 05:45:10 19° SW 05:49:11 10° S
STARLINK-1277 4.4 05:42:20 10° W 05:46:23 44° SSW 05:47:22 37° SSE
STARLINK-59 3.3 05:43:34 10° NW 05:47:27 85° NNE 05:47:48 73° ESE
Cosmos 2056 Rocket 3.7 05:42:12 10° SSW 05:47:36 75° WNW 05:52:51 10° NNE
STARLINK-1021 3.6 05:44:23 10° NW 05:48:33 68° NE 05:48:58 63° ENE
STARLINK-56 3.3 05:45:07 10° NW 05:49:01 84° NE 05:49:17 76° E
ATLAS 2AS CENTAUR R/B 3.2 05:44:13 10° SSW 05:50:12 36° SE 05:51:07 34° SE
STARLINK-73 3.3 05:46:46 10° NW 05:50:40 86° NE 05:50:52 80° ESE
STARLINK-1276 4.4 05:47:23 10° W 05:51:24 42° SSW 05:52:09 38° S
STARLINK-38 3.3 05:48:25 10° NW 05:52:19 89° NE 05:52:27 83° ESE
CZ-2C R/B 3.1 05:53:40 40° SE 05:53:40 40° SE 05:58:02 10° S
STARLINK-1019 3.5 05:49:21 10° NW 05:53:32 74° NE 05:53:46 71° ENE
STARLINK-24 3.4 05:49:48 10° WNW 05:53:53 86° SSW 05:54:10 76° SE
STARLINK-65 3.3 05:50:04 10° WNW 05:53:58 90° SSW 05:54:03 86° SE
STARLINK-53 3.3 05:51:59 10° WNW 05:55:54 84° SSW 05:55:57 84° S
STARLINK-1305 4.5 05:52:25 10° W 05:56:25 40° SSW 05:56:57 38° S
STARLINK-25 3.4 05:53:33 10° WNW 05:57:08 80° WNW 05:57:08 80° WNW
STARLINK-1012 3.5 05:54:18 10° NW 05:58:29 80° NNE 05:58:32 80° NE
Cosmos 1818 3.6 05:53:09 10° NW 05:58:34 78° SW 06:00:42 38° SSE
Cosmos 1933 Rocket 4.2 05:55:43 10° N 05:58:46 42° NNE 05:58:46 42° NNE
Cosmos 1633 Rocket 3.9 05:57:58 10° NNW 06:02:18 50° WSW 06:06:32 11° S
Shenzhou-11 Module 4.4 06:00:13 10° WNW 06:01:12 20° WNW 06:01:12 20° WNW
YAOGAN 6 2.8 06:03:03 74° W 06:03:03 74° W 06:06:37 10° NNW
BREEZE-M DEB (TANK) 4.5 06:00:35 10° WSW 06:05:10 62° NNW 06:24:06 10° NE
Meteor 1-25 Rocket 4.0 06:00:30 10° N 06:06:03 71° E 06:07:53 43° SSE
Centaur D AC-29 3.9 06:03:49 10° NW 06:07:05 13° NNW 06:09:18 10° N
Cosmos 2100 Rocket 4.0 06:01:49 10° N 06:08:03 83° W 06:14:20 10° S
Cosmos 2219 Rocket 3.9 06:03:19 10° WNW 06:08:17 30° SW 06:13:01 11° S
STARLINK-1026 3.7 06:04:15 10° WNW 06:08:07 75° WNW 06:08:07 75° WNW
Meteor 1-18 Rocket 4.3 06:03:06 10° S 06:08:02 53° SE 06:08:02 53° SE
STARLINK-50 3.8 06:05:59 10° WNW 06:09:41 66° WSW 06:09:41 66° WSW
STARLINK-1013 3.9 06:09:12 10° WNW 06:12:52 66° WNW 06:12:52 66° WNW
Cosmos 1452 Rocket 3.5 06:12:45 10° SSW 06:17:29 66° SSE 06:17:29 66° SSE
STARLINK-1009 4.2 06:14:11 10° WNW 06:17:39 58° W 06:17:39 58° W
Cosmos 1420 Rocket 4.2 06:16:04 10° SSW 06:21:27 73° WNW 06:24:07 30° N
Cosmos 1980 4.4 06:17:26 10° NW 06:22:59 53° WSW 06:25:38 30° S
STARLINK-1015 4.4 06:19:11 10° WNW 06:22:26 51° W 06:22:26 51° W
CZ-4C R/B 4.3 06:21:10 10° SSW 06:24:38 15° S 06:24:38 15° S
Cosmos 2061 Rocket 3.9 06:18:32 10° N 06:24:49 86° E 06:28:12 30° S
Envisat 3.8 06:21:20 15° S 06:25:29 49° WSW 06:30:24 10° NW
Feng Yun 1-1 Rocket 4.3 06:27:58 48° S 06:29:30 75° WSW 06:34:57 10° NNW
Meteor 1-20 Rocket 4.4 06:24:07 10° NNW 06:29:52 75° WSW 06:32:29 35° S
Cosmos 2297 4.0 06:26:00 10° SSW 06:30:33 57° S 06:30:33 57° S
Helios 1A Rocket 4.1 06:33:10 41° W 06:33:10 41° W 06:36:31 10° NW
Cosmos 2016 Rocket 4.0 06:29:05 10° N 06:35:22 81° W 06:39:15 26° S
USA 234 4.3 06:34:22 31° SSE 06:35:43 33° S 06:41:29 10° WSW
Cosmos 1864 Rocket 4.3 06:30:03 10° N 06:36:14 87° E 06:36:18 86° ESE
Lacrosse 5 rocket 3.2 06:38:08 10° NW 06:40:19 29° NW 06:40:19 29° NW
ATLAS 5 CENTAUR R/B 3.0 06:38:02 10° NW 06:45:07 61° SW 06:46:25 52° S
Cosmos 1816 Rocket 4.4 06:38:55 10° S 06:54:02 - N 06:45:21 84° W
Cosmos 2237 Rocket 3.5 06:46:06 10° WNW 06:51:17 36° SW 06:52:55 30° SSW
Cosmos 1943 Rocket 4.1 06:47:22 10° SSW 06:48:59 19° SSW 06:48:59 19° SSW
Cosmos 2369 Rocket 4.3 06:49:11 10° SSW 06:50:30 17° S 06:50:30 17° S
ATLAS CENTAUR R/B 4.4 06:54:26 10° SSW 06:54:46 12° SSW 06:54:46 12° SSW
BREEZE-M DEB (TANK) 4.4 06:47:38 10° NW 06:59:38 64° NNW 06:59:38 64° NNW
SL-16 R/B 3.4 07:00:56 10° NW 07:04:24 37° NW 07:04:24 37° NW
BREEZE M DEB (TANK) 4.1 06:55:50 10° WSW 07:13:12 78° W 07:13:12 78° W
NOSS 3-4 (A) 4.3 07:08:06 10° SW 07:13:16 50° SW 07:13:16 50° SW
NOSS 3-4 (C) 4.3 07:08:11 10° SW 07:13:20 50° SW 07:13:20 50° SW
ATLAS 2AS CENTAUR R/B 3.9 07:34:52 10° SW 07:38:34 35° SW 07:38:34 35° SW
